Wind_Speed
49 51 53 51 49 47 45 48 50 50 51 53 53 54 54 55 54 50 48 46 47 52 52 49 47 46 45 41 37 33 33 34 31 28 27 28 29 27 25 24 25 28 29 30 33 35 37 38 38 38 39 38 36 33 32 31 31 32 32 32 30 31 31 31 31 32 33 34 35 36 36 35 35 35 36 37 38 39 40 40 40 39 38 38 37 36
50 53 52 47 46 48 50 51 51 52 53 54 55 55 55 55 53 51 50 48 49 53 52 50 48 46 46 42 37 33 31 32 33 29 24 23 25 23 22 22 23 25 26 27 29 32 35 38 38 39 39 38 36 34 33 32 32 32 32 31 30 32 32 32 32 33 34 34 36 37 37 36 36 36 37 38 39 39 39 40 39 39 38 38 38 38
52 54 50 45 47 51 52 52 52 53 54 55 55 56 55 54 53 52 51 49 51 54 52 51 50 47 47 43 36 32 30 30 32 30 22 18 19 20 21 23 24 25 25 26 27 30 33 36 38 38 38 37 36 36 35 34 34 34 34 34 34 35 35 35 34 34 35 36 37 38 38 38 38 38 38 39 40 40 40 40 40 40 40 40 40 40
55 54 48 47 49 51 52 52 53 54 55 55 55 56 56 53 53 54 53 51 52 53 52 52 50 47 48 45 36 31 30 30 30 27 23 20 19 18 20 22 24 26 27 26 26 27 31 33 35 37 38 38 38 37 37 37 37 37 37 38 38 38 38 37 37 36 37 38 38 39 39 40 40 40 40 41 41 42 42 42 43 42 42 43 43 43
54 53 49 49 50 51 52 53 53 54 54 55 55 55 55 53 53 54 54 53 52 52 52 52 49 45 47 45 34 28 28 28 27 25 23 22 21 18 19 22 24 26 28 27 25 25 27 29 31 33 36 37 37 37 38 38 39 39 39 40 40 40 40 39 39 40 40 40 40 41 41 41 42 41 42 42 42 43 44 45 45 45 45 45 45 44
54 52 50 50 51 51 52 53 53 52 53 54 54 53 53 53 53 53 53 53 54 53 51 52 50 43 42 42 33 27 28 28 26 24 21 21 22 19 18 18 19 22 25 25 25 25 26 28 31 33 35 37 37 38 39 40 40 40 40 41 41 41 41 42 42 43 43 42 42 43 43 43 43 43 43 43 44 45 46 46 46 46 46 45 44 43
54 51 50 52 53 53 54 54 50 48 51 54 53 51 51 52 53 52 52 53 54 54 52 53 52 46 41 41 37 31 31 31 28 24 22 22 23 21 18 15 16 19 21 23 26 28 29 30 32 34 35 36 37 38 39 40 41 41 42 42 43 43 43 44 44 45 44 44 44 44 44 45 45 45 45 46 47 48 47 47 46 46 46 45 44 43
52 49 49 51 53 55 55 52 47 46 51 55 53 51 51 52 52 53 53 54 54 53 53 53 54 52 44 39 40 37 35 36 32 26 25 26 25 23 22 22 22 23 24 25 26 28 29 31 32 34 35 36 38 40 41 41 42 43 43 44 44 44 45 46 46 46 46 46 46 46 47 48 48 48 48 49 50 50 48 47 46 46 47 47 47 46
52 51 49 50 52 54 52 48 46 48 52 54 53 53 54 54 54 55 55 55 54 53 54 53 53 54 47 41 44 44 43 42 38 32 31 29 27 26 28 31 33 34 35 33 31 32 31 31 32 33 35 37 39 41 43 45 45 46 46 46 46 46 47 47 47 47 47 47 47 47 47 48 48 49 49 50 51 51 50 48 47 47 48 48 49 49
54 53 52 53 54 52 50 50 51 52 53 54 55 56 56 56 56 57 56 56 56 55 55 54 52 51 47 45 47 49 48 46 44 42 41 37 35 35 35 36 38 41 43 44 42 41 40 38 37 37 38 40 42 44 46 48 49 49 49 49 49 49 49 49 49 49 48 48 48 48 48 48 48 48 49 49 50 50 50 49 49 48 48 48 49 49
54 54 54 55 54 52 52 53 54 55 55 56 57 57 58 59 59 59 59 58 59 58 55 53 51 47 47 50 50 49 49 49 48 49 50 48 46 46 43 41 42 44 47 51 52 51 50 48 45 44 45 46 46 47 48 50 51 51 51 51 51 52 51 51 51 50 51 51 51 50 50 49 49 49 49 49 49 49 49 49 49 49 49 49 49 50
55 56 56 55 55 55 55 55 54 55 56 57 57 57 58 59 60 62 62 61 62 59 53 52 50 46 49 54 53 51 52 52 51 53 57 56 53 52 51 50 53 55 54 54 54 53 54 53 50 48 49 49 50 51 51 52 53 52 51 52 53 53 53 53 53 53 54 54 54 53 53 53 52 52 50 50 50 50 50 49 49 49 49 49 49 50
55 56 57 57 56 56 56 56 56 56 56 55 55 56 57 59 62 64 64 63 63 58 53 52 52 51 54 55 53 53 53 52 52 54 58 59 57 58 60 61 64 64 62 59 55 51 49 51 52 51 50 50 51 53 52 51 53 53 52 52 53 54 56 56 56 56 57 57 57 57 57 56 56 55 53 51 51 51 51 51 50 50 49 49 50 50
57 57 57 57 56 56 57 58 57 56 55 55 54 54 55 58 61 63 63 63 61 57 55 55 57 59 60 57 54 52 51 53 54 54 56 60 62 64 67 68 67 66 65 63 61 58 53 51 52 52 53 54 54 53 51 50 53 55 55 55 56 57 59 59 60 60 60 60 60 60 60 59 59 57 56 54 52 52 52 52 51 50 50 51 50 50
57 57 55 54 54 55 56 55 54 54 54 55 54 54 56 57 59 59 59 60 60 59 59 60 62 63 62 59 55 52 52 54 57 59 62 65 67 70 70 70 69 68 67 65 64 65 64 61 59 57 56 56 56 54 52 52 54 56 59 60 60 61 62 62 62 62 62 62 63 63 63 61 60 59 58 58 56 53 52 51 52 52 52 51 51 50
58 57 54 54 54 52 51 51 50 51 52 53 54 54 56 55 54 55 55 57 59 61 64 65 67 66 63 62 60 58 59 61 64 67 68 70 72 72 71 71 71 71 71 71 69 68 68 67 65 61 55 52 53 53 52 52 54 57 59 60 62 63 63 63 64 64 64 65 65 66 66 65 62 61 60 59 59 57 54 53 53 53 53 52 52 52
60 58 53 55 55 52 51 51 51 52 52 53 54 55 55 54 54 56 59 59 59 64 66 67 69 69 67 68 67 65 66 68 69 71 73 74 74 73 72 73 74 72 71 72 71 69 67 66 66 63 59 58 59 60 59 57 56 57 57 57 59 61 62 63 64 65 65 66 67 68 70 68 65 63 61 60 61 61 60 59 56 54 54 54 53 52
61 61 58 59 60 58 58 58 57 57 58 58 57 56 56 57 59 61 63 63 64 69 70 70 71 71 70 73 73 69 69 72 75 76 76 75 74 74 73 72 72 70 68 68 67 66 65 66 66 65 66 67 67 65 64 61 58 57 59 61 61 61 61 62 63 65 67 68 69 70 71 70 68 66 65 63 63 64 64 64 61 57 55 55 54 53
61 63 61 61 65 65 63 63 64 63 63 64 63 62 63 64 65 64 64 62 61 64 66 69 73 75 75 76 77 75 75 77 78 78 78 77 75 74 73 69 67 65 65 64 64 64 65 66 67 67 68 70 70 68 66 63 59 57 60 65 66 64 62 60 60 62 65 68 70 71 72 72 72 70 68 66 66 66 66 65 63 60 57 56 55 54
66 68 67 65 66 67 65 66 67 66 65 65 64 64 64 63 61 60 60 60 60 62 64 68 76 81 81 78 79 82 82 81 80 79 78 77 74 69 66 65 63 61 62 63 63 64 65 67 69 68 67 68 68 68 66 65 64 62 61 62 63 64 62 61 60 59 61 65 68 70 71 73 75 74 72 71 70 70 69 66 64 60 58 56 55 54
71 72 72 69 69 72 70 68 66 65 62 59 55 53 53 54 54 57 61 62 65 69 72 74 78 80 79 77 77 80 81 79 76 73 69 65 62 60 60 62 63 62 63 64 66 67 67 69 71 69 68 67 67 67 67 66 66 66 64 60 58 61 62 63 64 63 63 64 66 67 70 72 75 76 76 75 74 72 70 67 64 60 57 56 56 55
69 68 68 66 66 69 68 62 59 58 57 54 52 52 53 55 58 64 69 70 70 73 73 73 75 74 73 72 74 75 75 73 70 66 63 61 61 62 63 65 67 67 69 70 71 72 71 71 72 72 70 69 69 69 69 68 67 66 65 60 57 58 60 62 65 66 67 67 67 67 69 71 71 74 79 79 74 72 70 67 64 60 58 58 57 57
63 62 64 63 62 63 62 59 59 59 60 60 61 61 62 65 68 71 71 68 66 67 66 67 70 74 74 75 77 76 72 69 66 64 64 65 66 67 68 70 72 73 75 77 77 76 75 73 72 72 71 70 70 71 69 68 66 64 62 59 57 58 60 63 66 68 68 69 69 68 68 70 71 75 80 77 72 71 69 66 64 62 61 60 59 59
63 63 66 67 67 67 66 66 68 69 70 71 72 71 70 72 72 71 69 67 66 67 68 72 79 84 84 82 79 74 70 69 68 68 69 72 74 75 76 79 81 81 82 81 81 80 78 75 73 74 74 74 74 73 72 69 66 63 60 57 57 59 62 65 67 69 70 72 73 72 72 73 76 78 76 71 70 71 69 67 66 64 62 61 61 61
66 67 69 70 72 73 73 73 72 72 72 72 72 71 71 72 72 72 72 73 75 77 76 80 86 86 82 79 76 73 72 72 73 75 78 81 82 82 83 82 82 81 80 79 79 79 78 78 78 78 77 76 75 73 71 70 67 65 63 60 60 62 63 65 66 67 68 70 73 75 76 76 77 74 67 62 62 64 64 65 66 65 63 62 61 60
71 71 71 72 74 77 78 78 76 75 74 74 73 72 72 73 73 75 75 74 77 79 78 81 85 83 78 77 77 76 76 77 78 80 83 85 85 85 84 82 80 79 79 78 78 78 78 79 79 79 78 77 76 75 74 72 70 68 69 69 69 69 69 69 70 71 71 71 70 71 73 74 73 71 67 64 63 65 66 66 63 62 60 58 56 56
70 71 71 71 72 73 74 75 75 75 76 76 74 74 73 73 74 74 76 79 80 81 83 83 83 83 80 77 77 78 78 79 79 81 82 82 83 83 82 83 83 83 84 83 83 83 83 81 80 79 78 77 75 74 74 75 76 77 79 81 81 81 79 78 78 79 80 79 77 75 76 78 78 77 75 74 74 75 76 72 66 62 61 60 61 60
67 69 70 70 71 71 71 71 71 73 76 77 76 77 76 76 76 75 78 80 78 78 80 78 75 77 75 71 72 74 73 73 73 74 76 77 78 78 79 81 82 83 85 86 87 87 88 87 86 85 84 83 81 79 79 82 86 88 89 88 89 89 88 86 86 86 87 88 87 84 83 83 84 83 80 78 77 77 76 74 69 65 66 68 69 69
72 73 73 72 74 74 73 74 74 75 77 77 76 76 75 76 78 79 82 81 75 73 75 73 71 73 72 70 71 71 70 71 71 71 72 72 73 74 75 76 77 78 79 81 82 85 86 88 90 90 90 90 89 89 88 89 90 90 87 85 86 87 88 88 88 88 90 91 92 91 90 89 88 86 83 79 76 74 73 72 69 67 68 70 70 70
74 75 74 74 76 76 75 74 74 74 75 75 75 75 75 75 77 79 81 79 76 76 77 76 76 78 78 78 78 76 75 74 72 71 71 71 73 73 74 74 75 76 77 78 79 80 81 83 85 87 88 89 89 89 90 89 88 84 80 79 79 80 82 83 83 83 84 86 88 90 90 89 87 85 83 80 76 73 71 70 69 68 68 69 71 71
73 74 73 71 73 73 70 69 68 68 69 71 73 74 73 74 76 76 76 76 76 78 78 78 78 78 79 80 80 80 79 78 77 77 76 75 75 74 74 74 73 73 74 75 76 77 78 79 80 81 82 83 84 85 85 86 85 81 77 75 74 75 76 77 77 77 76 77 79 81 82 82 81 79 78 78 76 74 71 69 69 68 68 69 71 73
69 68 64 61 64 65 61 60 60 60 63 67 67 67 68 68 70 70 70 71 74 76 78 78 78 78 79 79 79 80 80 80 81 81 79 79 79 77 77 76 75 73 72 71 72 74 75 75 74 75 76 77 79 80 81 83 83 81 78 74 73 72 72 73 73 72 72 72 73 73 75 76 75 74 73 73 73 73 72 71 70 69 69 70 71 73
61 60 58 57 63 64 57 55 58 61 65 65 58 55 57 58 59 62 66 70 73 75 75 75 76 77 78 78 78 79 79 80 81 81 79 78 78 78 77 77 77 77 76 76 77 76 76 76 76 77 77 78 78 79 79 81 82 83 82 78 76 75 74 74 74 73 72 72 72 72 71 71 71 71 70 70 71 72 73 72 72 71 71 70 71 72
63 65 66 67 72 73 66 64 69 74 75 68 59 59 64 67 70 74 78 80 81 80 79 79 80 81 82 81 81 81 81 82 82 84 85 84 83 83 82 81 81 82 82 82 83 83 85 86 87 87 87 86 85 84 83 82 82 83 83 82 80 79 79 78 78 76 74 73 71 69 68 68 69 70 70 69 70 70 71 72 72 71 71 71 71 71
69 71 74 75 78 80 77 76 81 86 85 80 77 79 82 83 85 86 87 86 85 85 85 86 88 89 90 90 90 90 91 91 91 93 95 95 95 94 93 93 93 92 91 90 90 90 91 93 94 95 96 97 96 95 94 93 91 89 88 87 85 82 80 80 78 77 76 76 73 70 68 69 69 70 71 71 71 70 71 72 73 74 74 73 72 72
72 73 76 77 79 81 81 81 84 87 88 86 86 87 87 87 88 88 88 89 88 87 88 89 90 92 93 94 94 95 96 96 96 97 98 99 99 99 99 99 99 99 99 99 98 98 99 99 99 98 99 99 98 96 96 97 97 95 92 91 89 85 82 81 81 79 79 78 75 71 69 69 69 70 72 73 73 71 71 72 75 77 78 77 75 74
74 75 76 78 79 81 82 83 85 87 87 86 86 86 86 87 87 87 88 89 88 88 89 90 90 91 92 92 93 93 94 94 94 94 96 97 98 99 99 98 98 98 98 98 98 97 96 96 95 93 90 89 89 90 91 92 95 96 95 94 93 90 88 87 87 86 84 83 81 77 74 72 71 70 71 73 74 74 73 74 76 79 81 81 78 77
76 76 77 79 80 81 82 84 86 86 87 86 84 84 84 84 83 85 86 86 85 85 86 87 88 88 89 90 91 91 92 92 91 91 92 94 95 96 96 95 95 95 94 94 93 91 89 89 90 89 85 82 81 83 84 85 87 89 91 93 95 94 91 90 90 90 90 89 88 85 82 80 77 74 73 73 74 75 76 77 79 81 83 84 81 80
76 77 77 79 80 80 81 83 84 85 85 84 81 81 81 81 80 81 83 84 83 82 83 84 84 85 87 88 89 90 91 91 91 89 90 91 93 94 93 93 93 93 93 92 92 92 91 90 91 91 90 88 87 86 85 84 84 84 86 88 90 91 90 91 91 92 92 92 91 90 89 88 86 82 78 75 74 75 76 78 80 82 83 84 84 83
75 76 77 78 79 79 79 81 82 82 82 80 78 77 76 76 76 77 80 81 80 79 80 81 82 83 84 86 88 89 90 90 89 88 87 88 89 90 90 91 91 92 92 92 92 92 92 91 91 92 92 94 94 94 93 92 91 90 89 89 90 91 92 93 94 94 94 94 93 93 93 92 91 89 84 80 77 76 76 77 81 83 83 83 85 85
73 74 75 76 76 76 76 78 79 79 78 76 74 73 71 72 74 76 76 76 75 76 77 79 80 81 81 83 85 87 87 87 87 86 85 85 86 87 88 89 89 90 90 91 90 90 90 90 90 90 90 91 92 93 95 97 98 98 98 97 96 95 96 97 97 97 97 97 96 96 95 94 93 91 88 85 81 79 77 76 78 81 82 82 83 84
70 71 72 72 72 72 73 74 76 77 74 71 69 68 68 70 71 72 72 72 73 73 75 75 76 77 79 81 83 84 84 84 84 84 84 84 84 85 86 87 88 89 89 90 90 91 91 91 91 90 90 89 89 89 90 92 94 95 97 99 99 100 101 101 101 101 100 99 98 96 95 94 91 89 88 86 83 82 79 77 77 76 76 77 78 79
68 69 69 68 68 69 70 71 73 73 70 67 66 66 66 67 69 69 70 71 72 72 73 74 75 77 80 81 82 83 83 84 84 84 84 85 85 86 87 87 88 88 89 90 90 91 93 94 94 94 93 93 93 92 92 93 93 93 93 93 94 96 99 100 101 102 100 97 95 93 92 91 88 87 87 86 85 84 83 81 79 76 75 74 74 74
64 65 65 65 65 66 68 69 69 68 66 65 65 65 65 65 67 68 70 71 71 72 74 76 77 78 80 81 82 82 83 83 83 84 84 85 86 86 87 88 88 89 89 90 90 91 92 94 95 95 95 95 95 96 97 98 98 97 96 94 93 94 95 96 98 98 97 95 92 90 89 88 87 87 87 86 85 83 83 84 83 80 78 77 76 75
61 61 62 64 65 65 67 67 65 65 64 63 63 64 65 65 66 67 69 71 72 73 74 76 77 77 78 80 81 81 81 82 82 83 84 85 86 87 87 88 88 89 89 89 89 90 91 92 93 94 94 94 94 95 97 99 100 100 98 98 99 99 98 97 97 96 94 92 89 87 86 87 87 85 84 84 84 82 81 83 84 83 81 80 80 79
58 58 61 64 64 64 65 62 60 62 62 61 61 62 63 64 65 66 68 70 72 73 74 75 76 77 77 78 79 80 80 81 81 82 83 84 85 86 86 87 87 87 87 87 87 88 89 90 91 92 92 92 92 93 95 96 98 98 97 98 101 104 103 101 99 97 94 91 88 86 86 88 89 86 83 82 83 82 81 80 81 81 81 81 81 82
54 55 59 61 61 62 62 59 58 61 62 61 62 63 64 65 66 67 68 70 71 72 73 74 75 75 75 76 77 78 79 79 80 81 81 82 83 84 84 84 85 85 85 85 86 86 87 88 89 90 90 91 90 91 92 93 94 95 96 97 100 103 105 105 104 101 98 94 91 90 89 91 93 91 87 84 83 82 82 81 80 79 78 78 79 81
52 55 59 59 59 62 63 61 60 63 63 62 64 65 65 66 67 67 68 69 69 70 71 72 72 73 73 74 75 76 77 77 78 79 80 81 82 82 82 82 82 82 82 82 82 83 84 85 85 86 87 88 88 89 90 91 91 92 93 95 97 100 103 105 107 107 105 102 99 96 94 95 96 96 95 92 89 86 85 83 82 81 79 78 78 80
53 57 58 58 60 62 63 61 61 63 64 63 63 65 65 66 67 67 68 68 68 69 69 69 70 71 72 73 74 75 76 76 77 79 80 81 81 81 81 81 81 81 81 81 81 82 83 83 84 84 85 85 85 86 87 88 89 89 90 92 95 97 99 101 105 109 111 111 110 108 104 103 103 103 103 102 99 95 91 88 87 85 82 79 79 81
54 56 55 57 61 62 60 59 60 63 65 64 63 64 65 65 66 67 67 67 66 66 67 67 68 68 70 71 72 73 75 75 76 77 78 79 79 79 80 82 83 83 83 83 84 84 84 85 85 85 85 84 83 84 85 85 85 86 87 90 92 94 96 98 100 103 107 110 113 115 116 114 113 111 110 110 109 105 100 95 92 90 87 84 82 83
54 55 55 57 61 61 60 59 60 62 64 62 61 62 64 64 64 65 64 64 64 64 65 65 66 66 67 68 69 71 72 73 74 76 77 78 79 81 82 83 85 85 84 84 85 85 85 84 84 84 84 83 82 82 82 82 82 83 84 87 90 91 92 94 96 98 100 103 106 109 113 115 117 117 118 118 117 115 109 103 98 95 93 91 88 87
Wind_Direction
276 277 278 280 283 284 281 276 275 276 277 278 279 280 282 283 285 289 292 291 291 288 284 284 284 284 285 286 288 290 290 290 290 285 282 284 286 288 289 288 285 281 278 274 271 270 270 270 270 270 271 275 279 282 283 282 279 277 276 277 278 277 277 277 276 274 272 271 270 269 269 268 267 266 267 268 270 270 271 271 272 271 270 268 267 264
277 278 280 283 283 279 275 273 275 276 276 277 278 280 281 282 286 288 288 289 289 286 285 287 286 283 284 285 288 290 290 291 291 289 287 288 290 293 293 288 283 281 280 276 273 269 268 268 269 269 271 275 278 279 279 279 278 276 276 277 276 276 276 275 274 273 273 272 272 272 272 272 271 270 271 271 271 271 271 272 272 271 269 268 266 264
278 278 281 282 277 274 274 275 276 276 275 276 277 279 280 282 285 285 285 286 285 283 285 288 286 283 283 285 287 290 289 288 290 294 297 291 288 290 289 285 283 281 279 277 275 272 270 269 271 273 275 277 278 279 280 278 276 274 275 275 274 274 274 274 273 274 274 273 273 274 275 275 274 273 273 273 273 274 274 273 272 270 269 267 265 263
277 278 280 278 275 276 277 277 276 275 275 276 277 278 279 282 284 283 283 282 282 283 285 287 284 281 283 284 285 289 287 286 289 296 300 294 287 287 285 283 282 282 281 280 279 277 276 274 274 276 277 277 277 279 279 277 274 272 273 274 274 274 275 276 276 275 274 272 272 273 274 274 274 274 274 275 277 278 277 274 271 269 267 266 264 263
275 277 278 277 276 277 276 275 275 274 275 276 277 278 279 281 280 280 281 283 282 283 285 286 282 279 282 283 284 288 285 283 287 290 292 289 284 284 286 284 281 282 284 286 286 284 281 280 278 276 275 275 276 275 274 273 273 273 273 274 275 276 276 275 275 274 272 272 272 271 272 272 273 274 274 276 278 279 277 274 271 269 267 267 267 267
273 274 276 276 276 275 274 274 273 273 275 277 277 277 277 277 277 278 281 283 283 284 284 284 282 278 280 282 285 288 283 280 282 282 281 278 277 280 283 282 279 280 285 289 290 288 286 283 280 278 277 277 277 276 275 275 274 274 274 274 274 275 274 273 272 272 272 272 273 273 272 272 272 272 273 275 276 276 275 274 273 271 270 270 269 269
273 274 274 274 273 272 272 272 273 275 276 275 275 275 275 276 277 278 280 280 282 283 283 283 281 277 276 280 286 288 282 275 274 279 281 279 277 278 281 280 278 278 278 280 285 287 286 285 283 282 281 281 280 279 277 276 275 274 273 273 273 273 273 272 272 272 272 272 272 272 272 272 271 272 273 274 274 274 274 275 274 273 271 270 269 268
276 274 272 271 271 270 270 272 274 274 273 274 275 275 275 276 277 277 278 279 280 280 280 280 280 280 277 280 287 288 280 274 274 281 285 282 279 279 283 286 287 286 280 276 280 282 281 281 282 283 284 284 283 282 281 279 277 276 275 274 273 273 272 272 272 273 273 274 273 273 272 272 272 272 272 272 273 274 274 274 273 272 271 269 268 268
274 272 269 268 267 268 270 272 271 270 271 273 274 274 275 276 276 277 277 277 278 277 276 275 278 281 279 279 286 285 280 281 284 288 285 281 280 281 284 288 292 294 291 286 285 284 281 278 278 281 283 284 284 283 282 282 281 280 279 278 277 276 275 274 275 276 276 276 275 275 274 274 273 272 271 271 271 272 272 272 270 270 269 269 268 267
272 270 269 267 266 267 269 269 268 269 270 272 273 274 275 275 276 276 276 276 276 274 273 273 277 283 280 275 278 278 280 285 289 292 289 286 287 286 286 289 292 294 295 294 292 288 284 279 278 279 280 281 282 282 282 282 282 282 282 281 281 280 279 279 280 279 279 278 277 276 275 275 274 273 272 271 271 271 271 271 270 269 268 267 267 266
269 269 268 267 267 267 267 266 267 269 270 271 272 273 274 275 275 275 274 274 273 270 270 273 278 282 279 274 274 276 280 285 289 295 294 292 294 293 291 292 292 292 293 293 293 291 287 283 279 278 279 279 279 280 281 281 281 281 281 281 281 280 281 280 280 280 279 279 279 278 277 276 275 274 273 272 272 271 270 270 269 268 267 266 266 266
267 267 266 265 266 266 266 267 267 268 269 271 272 272 273 273 273 273 272 271 270 269 270 273 275 274 271 272 275 278 279 283 290 296 295 295 296 295 294 294 293 292 290 288 287 286 286 285 282 279 278 276 274 275 277 279 280 279 278 278 278 279 279 279 279 279 279 280 280 279 279 278 277 276 274 273 272 271 270 269 268 267 267 266 267 267
266 265 264 263 263 264 266 267 267 268 269 270 271 271 271 271 270 270 269 269 269 270 271 272 272 267 263 266 271 273 277 283 289 291 292 295 296 295 296 296 295 294 293 290 287 282 278 278 280 280 278 273 269 268 270 273 276 276 275 275 275 276 277 277 277 277 278 278 279 279 279 278 278 277 276 273 272 271 270 269 268 267 267 267 266 265
267 264 264 264 264 264 265 266 267 267 268 268 268 268 268 268 268 268 268 270 270 271 270 269 267 263 261 264 267 271 277 281 283 286 289 291 293 295 296 296 295 295 295 295 294 290 284 279 278 279 278 274 270 267 267 269 270 270 270 271 272 273 274 274 275 276 276 277 277 278 277 277 276 277 276 275 273 270 269 268 267 266 265 265 264 263
271 267 264 265 264 263 264 265 267 267 266 266 266 266 266 266 267 269 270 271 270 269 268 264 262 261 263 267 270 273 275 278 281 284 287 289 291 292 292 293 294 295 294 293 292 291 290 288 286 283 280 276 272 270 268 267 268 267 266 266 267 269 270 272 273 274 275 276 277 278 277 276 275 275 275 276 275 272 269 268 266 265 263 262 261 261
275 270 266 266 265 264 264 265 265 266 265 265 264 265 266 268 270 272 271 269 269 267 265 263 262 263 266 269 271 274 276 278 282 285 287 288 288 287 288 290 292 292 292 290 289 288 289 290 291 290 287 281 277 275 272 269 268 268 267 266 266 266 267 269 270 272 273 274 276 277 276 275 275 274 274 274 273 272 270 267 265 263 262 261 260 260
275 271 268 269 269 267 267 267 266 266 265 264 262 263 266 269 270 271 271 270 269 268 265 263 264 265 267 269 270 273 277 279 281 283 285 285 284 283 285 288 289 289 288 288 288 288 288 289 290 289 287 285 283 283 282 279 276 273 271 270 268 266 266 266 267 269 271 272 274 274 274 273 272 272 272 271 270 270 269 268 266 263 261 260 259 260
274 272 269 270 271 270 269 269 269 268 268 268 267 268 270 270 270 272 274 273 272 272 270 266 265 265 266 268 271 273 275 277 279 281 281 280 281 282 284 286 285 284 284 284 286 287 287 287 287 286 285 284 283 283 283 282 280 276 273 274 275 271 268 267 267 268 269 270 271 271 271 271 271 270 270 269 269 268 268 268 266 263 260 259 259 259
273 272 269 268 270 270 269 270 270 270 271 273 273 272 272 273 274 275 276 275 275 276 275 272 270 267 265 268 273 274 274 275 276 278 279 280 282 282 282 281 279 280 280 281 281 281 282 281 280 280 280 281 282 282 282 282 280 276 273 277 280 278 274 270 267 267 267 267 267 268 268 269 269 268 267 267 266 266 266 266 264 262 260 258 258 259
272 273 271 266 265 267 266 267 268 270 272 274 274 274 273 273 274 273 272 273 273 273 273 274 273 270 268 270 274 275 275 275 275 276 277 279 280 279 278 276 274 275 276 276 275 276 277 277 277 277 277 278 279 280 281 282 282 280 277 278 279 279 277 272 268 265 262 262 264 266 267 268 268 267 266 265 265 264 263 262 261 259 258 258 258 259
272 274 273 269 266 266 267 266 267 268 270 270 270 270 269 268 268 270 269 269 270 273 275 276 275 273 272 273 274 275 276 277 277 278 277 275 274 272 272 272 272 272 273 273 274 275 275 275 275 276 276 276 278 280 281 282 282 281 280 278 276 276 273 270 269 267 262 260 261 264 266 266 266 267 266 264 262 261 260 260 259 257 256 257 258 260
273 275 276 274 270 268 268 267 267 266 265 264 263 261 261 263 267 272 274 273 274 277 278 278 278 276 274 273 273 274 276 278 278 276 273 272 272 271 271 271 271 272 273 273 273 274 274 273 273 273 274 275 276 278 280 280 280 279 278 276 271 269 266 263 264 266 266 264 264 265 266 265 266 267 265 262 260 259 259 258 258 257 256 256 257 259
272 274 274 273 270 267 265 265 265 264 264 263 263 263 265 267 270 274 275 275 275 275 274 273 274 275 273 272 272 273 275 276 274 271 271 272 273 273 272 272 273 274 274 275 275 275 274 273 273 273 274 275 275 276 276 276 275 274 274 272 267 264 261 258 257 260 263 265 265 267 268 266 265 264 262 259 257 258 259 258 257 256 255 256 256 258
269 269 270 270 269 267 265 265 264 265 265 265 266 267 269 270 272 273 273 272 271 269 269 270 271 273 274 275 274 273 271 270 269 270 273 273 273 273 274 274 274 274 274 275 275 275 275 274 274 275 275 274 273 273 272 271 271 270 268 267 265 263 261 258 256 256 258 260 261 264 264 263 262 262 263 262 258 257 258 258 256 255 254 255 255 256
268 268 270 271 271 271 269 267 267 268 268 268 269 269 270 271 272 272 272 273 272 271 272 272 272 274 277 278 276 274 272 270 269 269 271 273 274 275 274 273 273 273 273 274 274 273 273 274 275 274 273 271 270 269 269 268 267 267 266 265 264 262 260 258 257 257 259 260 260 261 262 263 265 265 267 266 263 262 264 263 260 258 256 255 255 256
270 270 271 272 273 273 272 269 269 270 271 271 270 269 269 270 270 271 272 271 271 272 273 272 273 276 278 278 277 276 274 272 271 271 271 272 273 274 274 274 273 272 272 271 271 270 271 272 272 271 270 269 269 270 270 269 268 268 268 268 268 266 264 262 261 262 263 263 262 262 263 265 269 269 269 268 267 269 272 272 271 267 262 261 262 262
273 273 272 272 273 274 274 273 272 272 272 273 272 272 271 271 271 271 271 270 272 273 272 272 274 277 277 277 277 276 274 274 273 273 272 272 271 271 271 272 271 271 271 271 270 269 270 270 270 270 269 268 268 269 270 270 271 272 272 273 272 271 269 268 267 267 267 267 267 266 267 269 271 273 273 273 272 272 273 275 275 272 268 268 270 270
272 272 272 272 273 273 273 273 272 271 271 273 273 273 273 273 273 272 271 273 274 274 273 273 275 276 277 278 278 277 277 276 275 274 274 273 272 272 271 271 271 270 270 270 269 269 269 268 268 268 268 268 267 268 268 269 271 273 274 274 274 274 272 271 270 269 269 270 270 270 270 271 272 273 275 275 274 274 274 274 274 271 268 269 271 272
272 272 272 272 272 272 272 272 273 272 272 273 273 272 272 272 272 272 272 274 273 271 272 274 274 274 274 274 273 273 274 274 274 274 275 275 274 273 273 272 271 271 270 269 268 268 268 267 267 267 268 268 268 268 268 269 271 273 273 273 273 273 273 273 272 271 270 270 271 271 272 272 272 273 274 274 274 274 274 273 272 269 267 267 268 269
273 274 274 273 273 273 272 273 273 272 272 271 270 270 270 270 270 270 271 271 270 270 272 273 274 274 274 272 272 271 270 270 270 270 270 270 271 271 271 270 269 269 270 270 269 268 267 267 266 267 267 268 269 268 268 268 270 271 272 272 272 271 272 272 272 272 271 270 270 270 271 272 272 272 273 273 272 272 272 271 270 268 267 266 266 266
273 275 275 275 275 273 273 273 273 272 271 269 267 266 267 268 269 269 269 270 270 271 273 274 275 275 275 275 275 274 272 272 271 270 269 269 269 268 268 268 268 268 268 268 268 268 267 267 267 267 267 268 268 268 268 268 268 269 271 272 272 271 271 271 271 271 271 270 269 269 269 269 270 270 270 270 270 269 269 269 268 267 266 265 265 265
273 275 274 273 272 272 273 273 270 267 264 263 264 268 269 269 269 270 271 272 274 276 277 278 278 277 276 276 276 275 275 274 273 273 272 271 269 268 267 266 266 266 266 266 266 266 266 267 267 268 268 268 267 267 267 266 266 267 268 270 272 272 271 270 269 268 267 266 265 264 265 266 266 266 266 265 266 267 267 267 267 267 266 265 263 263
269 269 268 266 265 265 266 265 262 260 257 255 258 265 266 265 265 268 271 272 274 276 277 276 275 274 274 273 272 272 273 273 273 272 271 270 269 267 266 265 264 264 264 264 265 265 265 266 267 268 269 269 268 266 266 266 266 266 266 267 269 270 271 270 268 266 263 260 260 260 261 261 262 262 261 261 262 264 265 266 266 266 265 264 263 263
265 264 264 265 265 265 263 261 263 264 262 258 257 260 263 264 266 268 270 271 272 272 271 270 270 270 270 270 269 270 270 271 271 271 272 271 270 269 268 267 267 266 266 265 265 265 266 267 268 268 269 269 269 267 266 266 266 266 265 265 266 268 269 269 268 266 261 256 256 257 258 259 260 260 259 259 259 260 262 264 265 265 264 263 262 263
266 266 266 267 268 268 267 265 265 266 266 265 265 266 268 270 271 272 272 273 273 272 271 270 270 270 270 270 270 270 270 270 270 271 273 274 274 274 273 272 272 271 270 269 267 267 267 267 268 269 270 272 271 270 268 267 266 266 266 266 265 265 266 266 266 264 261 257 255 256 256 256 258 259 260 259 259 260 261 262 263 264 264 263 262 263
267 267 267 267 268 269 269 268 268 268 269 269 271 271 272 273 273 274 275 275 274 274 274 273 273 272 272 272 272 272 272 272 271 272 274 275 276 276 276 275 275 274 274 273 272 271 271 271 272 272 273 273 272 271 268 266 266 266 266 266 265 264 265 266 265 263 260 257 257 259 259 258 257 257 258 259 260 261 263 264 265 266 266 265 264 263
267 267 268 268 268 269 270 270 270 270 271 271 272 273 274 275 275 276 276 276 276 276 276 276 275 275 275 275 275 275 275 274 274 274 275 276 276 277 277 277 277 277 277 277 276 276 276 276 277 277 276 274 273 271 269 266 265 265 264 264 264 265 265 265 265 264 262 260 259 260 261 261 261 260 260 259 261 263 266 268 269 269 268 266 265 264
268 268 268 268 269 269 270 271 271 272 272 273 274 275 275 276 276 277 277 277 277 277 277 277 277 277 277 277 277 276 276 275 275 275 275 276 276 277 277 277 278 278 278 278 278 278 277 276 276 275 274 272 271 270 269 267 265 264 263 262 263 264 264 263 263 264 264 263 262 262 262 262 263 264 264 262 262 263 265 268 270 271 269 266 264 263
268 268 268 269 269 270 271 271 272 273 274 275 276 277 278 278 279 278 278 278 278 278 278 278 278 277 277 277 277 276 276 276 275 275 275 275 276 277 277 277 277 277 277 277 277 277 276 274 273 272 271 269 268 267 266 265 264 263 262 261 261 261 261 261 261 261 262 262 263 264 264 265 264 263 264 264 263 262 263 264 266 267 266 263 261 261
269 269 269 270 270 271 272 273 273 274 275 276 278 278 278 279 279 278 277 279 280 280 279 278 278 277 277 277 277 277 277 277 277 277 276 276 277 278 278 278 278 278 278 277 277 277 276 275 274 273 272 270 269 268 266 265 264 263 263 262 261 260 260 260 260 260 260 261 262 264 265 266 266 265 264 265 265 263 262 261 260 259 259 258 258 259
270 271 271 271 272 273 274 274 275 275 276 278 279 279 278 278 277 277 278 280 280 279 279 278 278 278 278 278 278 278 278 279 279 279 279 278 278 277 278 278 278 277 277 277 277 276 276 275 275 274 274 273 272 271 270 268 267 266 265 264 264 263 263 262 262 261 260 261 263 264 265 264 265 265 264 264 265 263 260 258 257 256 256 256 256 257
272 272 272 273 274 275 275 275 275 275 278 279 279 278 278 278 278 279 280 280 279 278 278 278 278 278 278 278 278 278 279 279 280 280 280 279 279 278 277 277 277 277 276 276 276 275 274 273 273 272 272 272 272 272 272 271 270 270 269 268 267 267 266 265 265 264 264 263 263 262 261 261 262 263 263 263 263 261 258 255 254 254 254 254 254 255
273 273 273 275 275 275 273 273 274 276 279 279 278 278 278 279 280 280 279 278 277 277 277 277 277 277 277 278 279 279 280 280 281 281 280 280 279 279 278 278 277 277 276 276 275 275 274 273 273 272 271 270 270 269 269 269 270 271 271 271 270 268 267 267 265 264 264 262 259 257 256 258 260 262 264 265 262 258 255 253 252 252 252 252 253 253
273 274 275 275 273 272 272 272 274 278 279 278 278 279 280 279 279 279 278 277 277 276 276 277 277 277 278 279 280 281 281 281 281 281 281 280 280 279 279 279 279 278 278 277 276 276 275 274 274 273 272 271 270 269 268 268 268 268 268 268 267 266 265 265 263 261 260 257 254 253 255 257 259 262 265 264 259 256 254 253 252 251 252 253 253 253
273 274 274 273 272 272 272 274 276 278 279 279 280 280 279 278 278 277 277 278 277 277 277 278 278 279 280 280 281 282 282 282 281 281 281 281 280 280 280 280 279 279 279 278 278 277 277 276 275 274 273 273 272 271 270 269 268 267 266 265 264 262 261 260 259 258 256 254 253 253 256 257 259 259 260 258 257 257 257 255 253 253 253 253 253 254
273 274 273 273 272 272 273 276 279 280 280 281 281 279 279 279 278 277 277 277 278 279 279 280 281 281 281 281 281 281 281 282 282 282 282 282 281 281 281 281 281 281 280 280 280 279 279 278 277 277 275 274 273 273 272 271 270 269 267 265 263 262 260 258 257 255 254 253 253 253 255 257 256 254 253 255 259 261 260 259 257 256 255 255 255 255
272 273 272 273 274 275 276 278 280 281 281 281 280 278 278 279 279 279 279 279 280 281 281 281 282 282 282 282 282 282 282 282 283 282 282 282 282 283 283 283 283 283 283 282 282 281 281 280 279 278 278 276 275 275 274 273 272 271 270 267 265 263 261 259 258 256 254 254 254 253 253 254 253 250 250 254 259 262 261 260 258 257 256 256 257 257
274 273 273 276 277 278 278 279 279 279 279 279 279 279 279 279 279 280 280 280 281 281 281 281 281 281 282 282 282 283 283 283 284 285 285 285 285 285 286 286 286 286 285 285 285 284 283 282 281 280 279 278 277 276 275 274 273 272 271 270 268 265 263 261 259 257 256 255 255 254 254 252 251 250 252 254 258 260 261 259 258 257 256 256 257 257
277 276 277 280 279 278 278 279 279 279 277 277 278 280 280 280 280 280 280 280 280 280 281 281 281 282 282 283 284 285 285 286 286 287 288 288 289 289 289 290 290 289 289 289 288 287 287 286 284 283 281 280 279 278 276 275 274 273 272 271 270 268 266 263 260 258 257 256 256 256 256 254 253 252 254 256 258 259 260 259 259 258 256 256 255 256
281 280 281 282 281 280 280 281 280 280 279 279 279 280 280 281 281 281 281 281 282 282 283 283 283 284 284 285 286 287 288 288 289 289 290 290 291 291 292 292 292 291 291 291 290 289 288 288 286 285 284 282 281 280 278 277 275 274 273 272 270 269 268 266 263 261 259 258 257 257 257 256 255 254 255 256 257 259 259 259 259 258 256 256 255 254
283 283 284 284 283 283 282 281 282 282 283 284 283 282 281 282 282 282 283 284 285 286 286 286 286 286 286 287 288 288 289 289 290 290 290 291 291 292 292 292 292 292 291 291 290 289 289 288 287 286 285 284 283 281 280 278 276 275 274 273 272 270 269 267 266 263 261 260 259 259 258 257 255 255 255 256 257 258 259 258 258 256 255 256 255 254
Height
5799 5796 5795 5797 5801 5803 5802 5798 5795 5795 5794 5792 5790 5788 5787 5785 5785 5790 5792 5791 5790 5781 5776 5780 5779 5776 5778 5782 5786 5788 5787 5786 5787 5788 5786 5785 5784 5784 5784 5783 5782 5780 5780 5781 5780 5779 5777 5776 5776 5775 5774 5775 5776 5777 5777 5777 5777 5777 5776 5777 5778 5778 5777 5777 5777 5777 5777 5777 5777 5776 5777 5777 5777 5777 5777 5777 5778 5778 5778 5777 5778 5778 5778 5778 5778 5778
5794 5790 5791 5797 5798 5796 5792 5791 5791 5790 5789 5787 5785 5784 5782 5781 5782 5785 5786 5786 5785 5776 5770 5773 5773 5771 5773 5776 5781 5783 5783 5781 5780 5782 5784 5783 5781 5781 5780 5779 5778 5777 5776 5776 5775 5774 5772 5771 5771 5770 5770 5771 5772 5772 5772 5773 5773 5772 5772 5773 5773 5773 5773 5773 5773 5773 5773 5774 5773 5772 5773 5773 5773 5774 5774 5774 5774 5774 5773 5773 5774 5774 5774 5774 5774 5773
5788 5784 5789 5794 5791 5787 5786 5786 5786 5784 5783 5782 5781 5780 5778 5779 5779 5779 5781 5781 5778 5772 5768 5768 5765 5763 5767 5771 5776 5779 5779 5778 5776 5777 5780 5780 5778 5778 5777 5775 5774 5774 5773 5772 5771 5770 5768 5767 5767 5766 5767 5768 5768 5768 5768 5768 5768 5768 5768 5769 5769 5768 5769 5769 5769 5770 5770 5770 5769 5769 5769 5770 5770 5770 5770 5770 5770 5770 5770 5769 5769 5769 5769 5769 5768 5768
5781 5780 5786 5787 5783 5782 5782 5781 5780 5778 5778 5778 5777 5776 5774 5776 5775 5771 5772 5774 5773 5769 5766 5765 5760 5756 5760 5765 5771 5775 5774 5774 5774 5774 5776 5776 5775 5774 5773 5772 5771 5770 5769 5768 5768 5767 5765 5764 5764 5764 5763 5763 5764 5764 5763 5763 5762 5762 5763 5763 5763 5763 5764 5765 5765 5766 5766 5765 5765 5765 5765 5765 5765 5766 5766 5766 5766 5766 5765 5764 5764 5763 5763 5763 5763 5763
5775 5777 5780 5780 5778 5777 5776 5775 5774 5773 5773 5773 5773 5772 5770 5772 5770 5766 5765 5765 5766 5766 5764 5762 5756 5751 5753 5758 5765 5771 5770 5770 5771 5772 5773 5772 5771 5771 5770 5769 5768 5766 5765 5765 5765 5764 5763 5761 5761 5760 5759 5759 5759 5759 5758 5757 5757 5757 5758 5758 5758 5758 5759 5760 5760 5760 5760 5760 5761 5761 5761 5761 5761 5761 5761 5761 5761 5760 5759 5759 5758 5758 5758 5758 5758 5759
5771 5773 5775 5775 5773 5771 5770 5768 5768 5768 5768 5768 5768 5767 5767 5766 5764 5763 5762 5760 5758 5760 5761 5760 5754 5748 5748 5751 5759 5766 5765 5765 5767 5768 5770 5769 5768 5768 5767 5766 5765 5764 5762 5762 5761 5760 5759 5758 5757 5756 5755 5754 5754 5754 5753 5752 5753 5753 5753 5753 5752 5753 5753 5753 5754 5754 5754 5755 5755 5756 5756 5756 5756 5756 5756 5756 5756 5754 5753 5753 5753 5753 5754 5754 5754 5754
5766 5771 5771 5769 5768 5765 5763 5763 5764 5764 5762 5762 5761 5762 5762 5761 5760 5759 5759 5757 5754 5754 5754 5754 5752 5746 5743 5746 5753 5758 5759 5759 5761 5764 5765 5766 5765 5764 5764 5763 5763 5762 5761 5760 5758 5757 5756 5754 5753 5752 5750 5750 5749 5749 5748 5748 5748 5748 5748 5748 5747 5748 5748 5747 5747 5748 5748 5749 5749 5750 5750 5750 5750 5750 5751 5750 5749 5748 5748 5747 5748 5748 5748 5749 5749 5749
5763 5765 5764 5763 5761 5759 5757 5759 5761 5759 5755 5754 5756 5756 5756 5756 5756 5755 5754 5753 5751 5750 5748 5747 5747 5744 5740 5742 5746 5749 5749 5750 5754 5759 5760 5760 5761 5760 5760 5759 5758 5758 5758 5758 5756 5755 5753 5751 5750 5748 5747 5746 5745 5744 5743 5743 5742 5742 5742 5743 5742 5742 5742 5742 5742 5742 5742 5743 5743 5743 5743 5743 5744 5745 5745 5744 5743 5743 5742 5742 5742 5742 5742 5743 5743 5743
5757 5757 5757 5756 5754 5753 5754 5756 5755 5751 5748 5749 5750 5750 5750 5750 5750 5749 5749 5748 5747 5746 5743 5741 5742 5742 5740 5740 5740 5739 5738 5740 5745 5751 5753 5754 5755 5756 5756 5754 5752 5751 5751 5752 5753 5751 5749 5748 5746 5745 5743 5742 5741 5739 5738 5737 5737 5737 5737 5737 5737 5737 5736 5736 5736 5736 5737 5737 5737 5737 5737 5737 5738 5738 5737 5737 5737 5737 5737 5737 5736 5736 5736 5736 5736 5736
5750 5749 5750 5748 5747 5749 5751 5749 5747 5745 5744 5744 5744 5744 5744 5743 5743 5743 5742 5742 5741 5739 5736 5736 5739 5740 5739 5737 5736 5733 5732 5735 5738 5740 5741 5744 5747 5748 5750 5749 5748 5746 5743 5743 5745 5745 5743 5742 5741 5740 5739 5737 5736 5735 5733 5733 5732 5732 5732 5731 5731 5730 5730 5730 5730 5730 5730 5729 5730 5730 5730 5731 5731 5730 5730 5730 5730 5730 5730 5730 5730 5730 5730 5729 5729 5729
5743 5742 5742 5741 5742 5743 5743 5741 5741 5740 5739 5738 5738 5738 5737 5736 5736 5735 5735 5735 5733 5730 5732 5733 5736 5739 5735 5729 5729 5730 5729 5730 5731 5732 5731 5733 5737 5737 5739 5742 5742 5742 5740 5737 5736 5734 5733 5734 5735 5734 5733 5732 5732 5730 5729 5728 5727 5727 5727 5726 5725 5724 5724 5724 5723 5723 5722 5721 5722 5722 5722 5723 5723 5723 5723 5723 5723 5723 5723 5723 5723 5723 5723 5722 5723 5723
5736 5735 5735 5735 5735 5735 5734 5734 5735 5735 5734 5733 5732 5732 5731 5730 5729 5726 5726 5726 5723 5723 5729 5730 5731 5734 5728 5722 5723 5726 5725 5725 5727 5726 5722 5723 5727 5727 5729 5732 5732 5732 5734 5734 5732 5729 5725 5724 5725 5727 5728 5727 5726 5724 5724 5723 5722 5721 5721 5719 5718 5717 5717 5716 5716 5715 5715 5714 5714 5715 5715 5715 5715 5715 5716 5716 5716 5716 5716 5716 5716 5716 5716 5716 5716 5716
5728 5728 5728 5727 5728 5729 5727 5727 5728 5728 5728 5727 5726 5726 5724 5723 5721 5718 5717 5717 5716 5720 5725 5724 5723 5722 5718 5718 5721 5721 5721 5723 5724 5723 5718 5717 5718 5718 5718 5719 5719 5718 5718 5720 5722 5723 5723 5720 5717 5718 5719 5720 5719 5718 5718 5718 5717 5715 5714 5713 5712 5711 5710 5709 5708 5708 5707 5707 5707 5707 5708 5708 5708 5708 5708 5708 5709 5709 5709 5709 5709 5709 5709 5709 5709 5708
5719 5721 5722 5721 5722 5723 5721 5720 5720 5720 5721 5719 5719 5719 5716 5716 5713 5709 5710 5711 5711 5716 5717 5716 5713 5709 5709 5715 5718 5720 5721 5720 5719 5719 5717 5714 5712 5710 5709 5707 5707 5706 5705 5705 5704 5704 5709 5713 5712 5711 5710 5709 5710 5711 5712 5712 5711 5709 5707 5706 5705 5704 5703 5702 5701 5700 5700 5699 5699 5699 5700 5700 5700 5701 5701 5700 5701 5701 5701 5701 5702 5702 5702 5701 5701 5701
5709 5712 5717 5715 5714 5716 5714 5714 5714 5713 5712 5711 5713 5712 5708 5710 5706 5703 5706 5706 5705 5706 5706 5704 5702 5700 5704 5710 5714 5717 5717 5715 5713 5713 5713 5711 5708 5705 5702 5699 5698 5697 5696 5696 5695 5691 5691 5696 5700 5702 5701 5699 5698 5700 5703 5703 5702 5701 5700 5699 5699 5698 5697 5696 5695 5694 5694 5693 5692 5692 5692 5691 5692 5693 5693 5692 5692 5693 5693 5694 5694 5694 5693 5693 5693 5692
5700 5704 5710 5706 5705 5709 5708 5708 5708 5705 5704 5704 5705 5703 5701 5705 5703 5698 5697 5698 5697 5694 5694 5695 5692 5694 5701 5704 5707 5711 5710 5710 5708 5706 5707 5705 5702 5699 5696 5692 5690 5690 5686 5684 5686 5685 5683 5683 5685 5688 5690 5689 5688 5688 5690 5690 5690 5690 5690 5691 5691 5691 5691 5690 5689 5688 5688 5687 5686 5685 5684 5684 5684 5685 5685 5685 5684 5685 5685 5685 5686 5686 5685 5685 5685 5684
5693 5697 5703 5698 5697 5701 5700 5701 5701 5698 5697 5697 5697 5696 5697 5699 5696 5691 5687 5689 5690 5682 5684 5689 5685 5689 5696 5695 5700 5706 5705 5704 5703 5702 5701 5698 5693 5691 5690 5687 5683 5682 5678 5674 5675 5676 5676 5676 5676 5677 5678 5679 5680 5680 5680 5680 5680 5679 5679 5681 5682 5683 5683 5683 5682 5681 5680 5680 5680 5678 5677 5676 5676 5676 5676 5676 5676 5676 5676 5676 5677 5677 5677 5677 5676 5676
5687 5688 5697 5695 5690 5692 5693 5692 5692 5691 5689 5688 5689 5691 5691 5688 5686 5684 5678 5678 5679 5672 5673 5682 5680 5684 5688 5685 5691 5701 5701 5699 5696 5695 5693 5690 5687 5684 5683 5681 5676 5673 5672 5669 5669 5669 5669 5669 5668 5669 5669 5669 5671 5673 5672 5672 5672 5671 5670 5670 5671 5672 5674 5674 5674 5674 5673 5672 5671 5670 5668 5667 5668 5668 5667 5667 5666 5666 5667 5668 5668 5667 5667 5668 5667 5667
5680 5677 5687 5691 5684 5683 5687 5686 5683 5683 5682 5679 5681 5683 5682 5678 5677 5676 5671 5668 5669 5663 5662 5669 5671 5675 5680 5681 5684 5690 5692 5692 5689 5687 5683 5679 5680 5677 5674 5673 5669 5666 5665 5664 5663 5662 5662 5662 5661 5661 5661 5661 5661 5663 5664 5665 5665 5665 5664 5662 5661 5661 5662 5663 5664 5665 5664 5663 5662 5660 5660 5659 5659 5659 5658 5657 5657 5657 5658 5659 5658 5657 5657 5657 5657 5658
5673 5667 5672 5682 5679 5675 5679 5681 5677 5676 5675 5672 5672 5672 5672 5671 5669 5667 5664 5661 5660 5655 5652 5654 5655 5660 5673 5682 5681 5676 5676 5678 5679 5678 5675 5672 5670 5667 5665 5662 5660 5658 5656 5656 5656 5656 5655 5653 5651 5653 5653 5652 5651 5651 5654 5656 5656 5656 5656 5655 5654 5652 5651 5651 5652 5653 5653 5652 5652 5652 5652 5652 5651 5650 5649 5648 5647 5647 5648 5648 5647 5647 5647 5647 5647 5648
5665 5658 5657 5668 5671 5666 5669 5673 5670 5668 5667 5664 5663 5663 5663 5663 5660 5656 5653 5653 5653 5647 5643 5642 5638 5645 5665 5676 5674 5666 5662 5664 5666 5665 5665 5665 5661 5658 5655 5651 5648 5648 5648 5648 5648 5647 5647 5646 5643 5644 5645 5645 5644 5643 5644 5645 5646 5646 5646 5646 5646 5645 5643 5641 5640 5641 5642 5642 5642 5644 5644 5643 5642 5642 5640 5638 5636 5636 5637 5637 5637 5637 5637 5637 5638 5639
5657 5652 5647 5652 5658 5658 5661 5663 5661 5658 5657 5655 5654 5654 5655 5654 5652 5647 5641 5644 5646 5640 5636 5634 5624 5630 5653 5666 5664 5659 5654 5654 5655 5653 5652 5652 5649 5646 5644 5640 5638 5640 5640 5640 5639 5638 5638 5637 5636 5637 5638 5639 5639 5637 5636 5636 5636 5636 5636 5636 5636 5636 5635 5633 5630 5630 5630 5631 5633 5635 5635 5634 5634 5634 5631 5629 5628 5627 5628 5628 5628 5627 5627 5627 5628 5629
5651 5645 5639 5640 5645 5649 5653 5654 5651 5648 5648 5646 5643 5645 5647 5646 5645 5641 5634 5637 5639 5632 5629 5626 5613 5614 5637 5654 5654 5651 5649 5648 5645 5642 5641 5637 5632 5630 5631 5632 5631 5631 5630 5628 5627 5627 5627 5629 5630 5630 5631 5632 5632 5631 5629 5627 5627 5626 5626 5627 5627 5626 5626 5624 5622 5621 5621 5622 5623 5625 5625 5625 5625 5622 5620 5621 5621 5620 5620 5620 5619 5618 5617 5618 5618 5618
5643 5637 5632 5631 5632 5637 5644 5646 5642 5638 5638 5635 5633 5638 5639 5635 5636 5634 5627 5628 5626 5621 5622 5618 5602 5602 5622 5637 5640 5640 5641 5642 5640 5635 5627 5618 5616 5619 5621 5622 5621 5619 5618 5618 5617 5618 5618 5620 5621 5621 5621 5622 5621 5622 5621 5619 5618 5617 5618 5618 5618 5617 5617 5615 5613 5612 5612 5612 5612 5614 5615 5615 5613 5611 5612 5614 5613 5613 5612 5611 5610 5609 5608 5609 5608 5609
5631 5629 5627 5623 5621 5624 5631 5635 5633 5631 5629 5625 5625 5630 5628 5626 5626 5623 5620 5618 5610 5609 5615 5606 5591 5597 5612 5619 5624 5628 5629 5630 5631 5626 5615 5605 5605 5609 5607 5607 5608 5608 5608 5609 5609 5609 5609 5609 5610 5610 5610 5610 5610 5610 5610 5609 5609 5608 5608 5608 5608 5608 5607 5606 5604 5602 5602 5603 5603 5604 5604 5604 5602 5602 5604 5605 5604 5604 5603 5602 5601 5600 5600 5599 5599 5600
5620 5621 5621 5617 5613 5613 5616 5622 5626 5624 5618 5613 5615 5618 5618 5618 5616 5612 5612 5607 5598 5599 5604 5594 5584 5593 5604 5606 5607 5610 5611 5611 5613 5612 5606 5601 5599 5598 5596 5594 5595 5596 5596 5597 5597 5598 5598 5597 5598 5598 5598 5598 5598 5598 5598 5597 5597 5597 5597 5597 5598 5598 5597 5596 5594 5592 5592 5593 5594 5595 5595 5594 5593 5593 5594 5594 5593 5594 5594 5593 5593 5592 5592 5591 5590 5591
5609 5609 5612 5609 5605 5605 5606 5609 5615 5613 5604 5600 5602 5605 5606 5607 5606 5604 5599 5593 5592 5592 5587 5585 5585 5584 5590 5596 5594 5592 5592 5594 5596 5596 5594 5592 5590 5589 5589 5586 5584 5584 5583 5583 5584 5584 5584 5584 5584 5585 5586 5587 5587 5587 5586 5585 5583 5583 5583 5583 5584 5585 5585 5585 5584 5582 5581 5581 5582 5584 5583 5582 5581 5581 5582 5583 5583 5583 5583 5583 5584 5584 5583 5582 5582 5583
5600 5596 5601 5602 5596 5596 5598 5598 5602 5602 5594 5591 5591 5592 5594 5595 5595 5593 5586 5583 5588 5582 5570 5577 5584 5576 5578 5585 5581 5577 5579 5579 5580 5581 5580 5580 5579 5578 5578 5576 5574 5573 5572 5572 5572 5571 5571 5571 5571 5572 5573 5574 5575 5576 5575 5574 5572 5570 5570 5570 5570 5570 5571 5572 5572 5571 5570 5569 5570 5571 5571 5571 5570 5570 5571 5572 5572 5571 5571 5572 5572 5574 5573 5573 5573 5574
5590 5586 5592 5593 5586 5585 5588 5588 5590 5590 5586 5583 5582 5580 5583 5584 5584 5583 5577 5577 5579 5570 5561 5569 5573 5567 5568 5571 5567 5567 5569 5567 5567 5569 5568 5568 5567 5566 5565 5565 5563 5562 5561 5561 5561 5560 5560 5560 5559 5559 5559 5560 5562 5563 5564 5563 5561 5560 5558 5557 5557 5556 5556 5557 5557 5558 5558 5557 5557 5558 5558 5559 5558 5558 5559 5560 5560 5560 5560 5560 5561 5562 5562 5562 5563 5563
5580 5576 5581 5581 5574 5574 5578 5579 5580 5579 5574 5572 5571 5569 5570 5572 5574 5574 5570 5568 5566 5560 5558 5561 5559 5557 5555 5554 5555 5557 5556 5556 5557 5557 5556 5556 5554 5554 5554 5553 5552 5551 5550 5550 5549 5549 5549 5549 5548 5547 5547 5547 5548 5549 5550 5550 5550 5548 5547 5546 5545 5545 5544 5543 5543 5544 5544 5545 5545 5545 5545 5546 5546 5546 5546 5547 5548 5548 5549 5549 5550 5551 5552 5553 5552 5552
5572 5568 5570 5570 5562 5561 5568 5570 5569 5567 5562 5558 5557 5559 5562 5564 5565 5563 5560 5559 5556 5551 5551 5551 5549 5547 5544 5542 5544 5544 5543 5544 5544 5543 5545 5544 5543 5543 5543 5541 5541 5540 5540 5539 5538 5537 5537 5537 5537 5536 5536 5536 5536 5536 5536 5537 5537 5537 5536 5534 5533 5532 5532 5531 5531 5531 5531 5532 5532 5532 5532 5533 5533 5533 5534 5534 5535 5536 5537 5537 5538 5539 5541 5542 5542 5542
5565 5560 5561 5561 5550 5549 5561 5562 5556 5555 5549 5542 5545 5552 5557 5557 5554 5551 5551 5550 5545 5540 5541 5541 5538 5537 5536 5534 5533 5532 5531 5532 5530 5529 5532 5532 5530 5531 5530 5529 5530 5529 5529 5528 5527 5526 5525 5525 5525 5524 5524 5524 5524 5524 5524 5525 5525 5525 5524 5523 5522 5521 5520 5519 5519 5519 5519 5519 5519 5519 5520 5520 5521 5522 5522 5522 5522 5523 5524 5525 5526 5528 5529 5530 5531 5531
5560 5553 5552 5552 5540 5539 5554 5555 5546 5542 5532 5530 5543 5549 5547 5546 5544 5542 5542 5541 5537 5534 5533 5532 5528 5527 5527 5526 5524 5522 5521 5520 5517 5515 5517 5518 5518 5517 5517 5517 5517 5517 5517 5516 5515 5515 5514 5513 5513 5513 5512 5512 5512 5512 5512 5512 5513 5513 5513 5512 5510 5509 5509 5508 5508 5508 5508 5508 5507 5507 5507 5508 5509 5510 5510 5511 5511 5511 5512 5513 5514 5516 5517 5518 5518 5519
5551 5546 5543 5543 5532 5530 5544 5546 5535 5525 5519 5526 5542 5542 5536 5536 5536 5533 5531 5529 5529 5528 5526 5523 5519 5517 5515 5514 5514 5513 5511 5509 5507 5503 5502 5503 5503 5503 5503 5503 5503 5503 5504 5503 5503 5502 5501 5500 5500 5500 5500 5500 5500 5500 5500 5499 5500 5500 5500 5499 5498 5498 5497 5497 5497 5497 5497 5497 5496 5495 5496 5496 5497 5497 5498 5499 5500 5500 5501 5501 5502 5504 5505 5506 5506 5507
5540 5538 5533 5532 5525 5521 5531 5533 5521 5512 5514 5523 5530 5529 5527 5528 5524 5520 5519 5518 5518 5518 5515 5512 5509 5505 5504 5502 5502 5501 5499 5498 5496 5493 5489 5488 5488 5488 5489 5489 5489 5489 5489 5489 5489 5488 5487 5486 5486 5486 5486 5486 5485 5486 5486 5486 5486 5487 5487 5486 5485 5485 5485 5484 5485 5485 5486 5485 5484 5484 5485 5485 5486 5486 5486 5487 5488 5489 5489 5490 5491 5492 5493 5494 5495 5496
5529 5528 5523 5521 5518 5514 5516 5517 5510 5505 5509 5515 5515 5515 5516 5515 5511 5508 5505 5504 5506 5505 5502 5499 5495 5492 5491 5489 5488 5487 5485 5484 5484 5483 5479 5475 5473 5473 5473 5473 5473 5472 5472 5473 5473 5472 5471 5470 5470 5470 5470 5470 5470 5470 5470 5470 5471 5472 5473 5471 5470 5470 5471 5470 5471 5472 5473 5473 5473 5473 5473 5473 5474 5475 5475 5475 5476 5477 5478 5479 5480 5481 5481 5482 5484 5485
5518 5517 5513 5510 5508 5506 5504 5502 5499 5497 5498 5503 5506 5506 5503 5501 5499 5497 5492 5490 5493 5492 5488 5485 5481 5478 5476 5475 5473 5472 5470 5469 5471 5472 5468 5462 5460 5459 5458 5458 5458 5457 5457 5456 5456 5456 5455 5453 5453 5453 5453 5454 5454 5454 5454 5455 5455 5456 5457 5456 5455 5455 5456 5456 5456 5457 5458 5459 5459 5460 5460 5461 5462 5463 5463 5463 5464 5464 5465 5466 5468 5469 5469 5469 5471 5472
5507 5505 5504 5499 5496 5497 5494 5490 5488 5487 5487 5491 5496 5496 5492 5489 5489 5486 5479 5477 5482 5481 5475 5470 5468 5466 5463 5460 5458 5456 5455 5455 5458 5461 5458 5451 5448 5447 5446 5445 5445 5444 5443 5442 5441 5441 5441 5439 5438 5438 5438 5439 5439 5439 5439 5439 5439 5440 5441 5441 5440 5440 5441 5442 5442 5442 5443 5443 5444 5445 5446 5447 5448 5449 5450 5450 5451 5451 5452 5452 5454 5456 5456 5457 5458 5459
5496 5493 5493 5488 5484 5486 5485 5479 5477 5477 5476 5481 5485 5485 5481 5478 5478 5475 5466 5463 5470 5471 5464 5457 5457 5455 5451 5447 5444 5442 5440 5440 5443 5448 5447 5441 5436 5434 5433 5433 5432 5430 5430 5429 5428 5427 5426 5425 5424 5424 5424 5424 5425 5425 5425 5424 5425 5425 5425 5425 5425 5425 5426 5426 5427 5428 5428 5428 5429 5429 5430 5431 5433 5435 5436 5437 5437 5437 5438 5439 5440 5442 5443 5443 5444 5446
5485 5483 5481 5477 5475 5476 5474 5469 5467 5467 5468 5472 5475 5474 5472 5469 5466 5461 5455 5454 5459 5458 5450 5445 5444 5442 5439 5435 5432 5429 5428 5428 5428 5432 5434 5432 5427 5423 5421 5420 5419 5417 5416 5416 5414 5412 5411 5410 5409 5409 5409 5409 5409 5410 5410 5409 5410 5410 5410 5410 5411 5411 5410 5410 5412 5413 5413 5414 5415 5415 5416 5416 5416 5418 5421 5422 5423 5424 5425 5427 5428 5429 5430 5431 5431 5433
5475 5473 5470 5467 5466 5467 5464 5459 5455 5455 5460 5465 5464 5461 5461 5458 5453 5449 5447 5448 5448 5444 5439 5434 5431 5429 5427 5424 5420 5417 5416 5416 5416 5416 5419 5419 5416 5412 5410 5408 5406 5405 5403 5402 5401 5399 5397 5396 5395 5394 5395 5394 5394 5394 5393 5392 5392 5394 5395 5395 5396 5396 5394 5394 5396 5397 5398 5399 5401 5402 5402 5402 5402 5403 5406 5407 5409 5410 5412 5414 5416 5417 5418 5419 5420 5422
5466 5463 5459 5459 5459 5457 5454 5449 5444 5443 5452 5458 5454 5450 5450 5446 5441 5441 5441 5438 5435 5431 5429 5425 5421 5419 5415 5411 5408 5407 5405 5405 5405 5404 5404 5404 5402 5400 5398 5396 5394 5392 5391 5389 5388 5386 5383 5381 5381 5381 5382 5382 5381 5379 5378 5375 5375 5378 5378 5379 5380 5379 5377 5378 5380 5381 5383 5385 5387 5387 5388 5388 5389 5390 5392 5394 5395 5397 5399 5402 5403 5404 5406 5407 5409 5411
5456 5451 5450 5453 5451 5445 5441 5439 5435 5437 5445 5447 5442 5440 5441 5437 5433 5432 5430 5426 5423 5421 5418 5415 5413 5409 5404 5400 5398 5397 5395 5395 5394 5393 5392 5390 5388 5387 5385 5383 5381 5379 5378 5376 5375 5373 5369 5366 5366 5367 5368 5369 5368 5366 5364 5361 5360 5362 5363 5364 5365 5363 5361 5363 5364 5364 5367 5370 5371 5372 5373 5374 5375 5376 5378 5380 5381 5382 5386 5388 5389 5391 5393 5395 5396 5399
5446 5443 5442 5443 5441 5433 5429 5430 5431 5433 5436 5435 5432 5432 5432 5428 5425 5422 5416 5413 5412 5411 5407 5404 5402 5400 5396 5392 5389 5387 5386 5385 5383 5381 5379 5377 5375 5374 5372 5370 5368 5365 5364 5362 5361 5359 5355 5350 5351 5352 5353 5354 5353 5351 5349 5347 5345 5347 5350 5351 5349 5346 5346 5348 5348 5348 5351 5354 5355 5356 5357 5359 5361 5363 5364 5366 5366 5367 5371 5373 5375 5378 5380 5382 5384 5386
5438 5437 5432 5429 5429 5425 5420 5422 5428 5428 5425 5425 5425 5423 5419 5417 5417 5412 5405 5401 5400 5400 5398 5394 5391 5391 5389 5384 5380 5377 5375 5373 5371 5369 5367 5364 5362 5361 5360 5358 5356 5353 5350 5348 5347 5345 5340 5336 5335 5336 5337 5338 5338 5335 5333 5330 5329 5331 5335 5335 5332 5329 5330 5332 5332 5333 5335 5337 5339 5341 5342 5343 5346 5349 5350 5351 5352 5353 5356 5358 5360 5363 5366 5368 5370 5373
5431 5431 5422 5416 5418 5417 5413 5418 5424 5420 5415 5416 5415 5412 5408 5406 5404 5402 5397 5392 5390 5390 5389 5385 5382 5381 5379 5375 5371 5367 5364 5362 5360 5357 5355 5351 5349 5349 5347 5345 5343 5340 5337 5335 5333 5330 5326 5322 5321 5321 5321 5323 5323 5320 5316 5314 5313 5314 5317 5318 5314 5311 5312 5315 5317 5318 5320 5322 5324 5325 5326 5328 5332 5334 5335 5337 5338 5340 5342 5344 5346 5349 5352 5354 5357 5359
5425 5423 5413 5408 5410 5408 5407 5415 5418 5410 5406 5406 5403 5400 5400 5396 5393 5391 5387 5384 5383 5381 5379 5376 5373 5370 5368 5364 5360 5357 5354 5352 5349 5345 5343 5340 5337 5337 5335 5332 5330 5327 5324 5322 5319 5316 5311 5308 5307 5307 5305 5307 5309 5306 5301 5299 5299 5298 5298 5298 5294 5292 5294 5297 5299 5301 5304 5306 5307 5309 5311 5313 5315 5318 5320 5322 5324 5326 5328 5331 5333 5335 5338 5341 5344 5346
5417 5413 5404 5403 5404 5400 5399 5407 5409 5400 5396 5396 5391 5389 5389 5386 5383 5382 5378 5375 5374 5371 5369 5367 5364 5360 5358 5354 5350 5346 5344 5342 5338 5334 5331 5329 5327 5326 5323 5320 5317 5314 5312 5310 5307 5302 5298 5295 5293 5292 5290 5290 5292 5291 5286 5285 5285 5284 5281 5278 5275 5274 5275 5278 5281 5282 5285 5289 5290 5292 5295 5296 5298 5301 5303 5306 5309 5311 5314 5317 5319 5321 5325 5329 5331 5333
5407 5402 5399 5397 5394 5392 5394 5398 5397 5389 5385 5386 5385 5382 5378 5375 5374 5373 5370 5367 5364 5362 5360 5358 5355 5351 5348 5344 5340 5336 5333 5332 5329 5324 5319 5317 5317 5315 5311 5308 5304 5301 5299 5297 5294 5289 5285 5282 5279 5276 5274 5275 5275 5273 5270 5269 5270 5269 5265 5260 5257 5256 5256 5259 5262 5264 5267 5271 5272 5275 5278 5279 5281 5283 5285 5288 5291 5295 5298 5302 5305 5307 5312 5317 5319 5321
5396 5392 5393 5388 5381 5383 5388 5388 5384 5376 5373 5377 5379 5374 5369 5366 5364 5362 5360 5358 5355 5353 5351 5348 5346 5343 5340 5335 5330 5326 5323 5321 5319 5314 5309 5307 5306 5304 5300 5296 5291 5289 5287 5284 5279 5276 5272 5269 5265 5261 5259 5259 5258 5256 5254 5253 5253 5252 5249 5243 5240 5239 5238 5239 5242 5245 5249 5253 5254 5256 5259 5261 5263 5266 5267 5269 5272 5277 5282 5287 5290 5293 5298 5304 5307 5308
5387 5383 5384 5379 5373 5373 5376 5377 5373 5367 5363 5366 5367 5363 5359 5358 5355 5353 5351 5349 5346 5344 5341 5338 5336 5334 5332 5328 5323 5318 5314 5311 5309 5305 5300 5299 5297 5294 5290 5285 5279 5276 5273 5269 5265 5261 5258 5255 5252 5247 5244 5243 5242 5239 5238 5237 5237 5237 5233 5227 5223 5221 5221 5221 5222 5225 5230 5235 5236 5238 5239 5241 5244 5249 5250 5252 5255 5258 5263 5270 5275 5279 5283 5288 5292 5295